Content
SEND FEEDBACK

Daily
Averages
Monthly
Summary
Australia

PINK LILY, QUEENSLAND


Home > Oceania > Australia > Queensland
Elevation: 32 feet     Latitude: 23 22S     Longitude: 150 28E

WEATHER
 
SELECT A DAY
Number of Records: 281,040;   Date Range: 2/21/97 - 7/8/14
 
SHARE

PRINT THIS DATA

[ ← Previous Day ]
WEATHER ALMANAC - JANUARY 23, 2013
[ Next Day → ]
[ °C ]   °F
Weather ElementAverageHighLow
Temperature80.1 °F90 °F (3:00 pm)73.4 °F (8:54 pm)
Dewpoint72.2 °F75.2 °F (11:56 am)68 °F (8:00 am)
Humidity77.9 %100 % (8:54 pm)42 % (3:00 pm)
Barometer29.73 in29.78 in (9:00 am)29.68 in (2:30 pm)
Wind Speed11.7 mph19.6 mph (11:44 am)
Wind Gust31.1 mph (11:44 am)
Weather ElementAverage
Visibility6.2 mi
Wind DirectionESE (113.1 °)

Weather ElementTotal
Precipitation---
Cooling Degree Days16.7 (Base 65)
Growing Degree Days31.7 (Base 50)
Averaged from 83 records on January 23, 2013
WEATHER CONDITIONS BREAKOUT
WIND DIRECTION BREAKOUT
WEATHER BY HOUR - JANUARY 23, 2013
[ °C ]   °F
Local TimeTemperatureDewpointHumidityBarometerVisibilityWind DirectionWind SpeedGust SpeedPrecipitationEventsConditions
12:00 AM78.8 °F73.4 °F83 %29.77 in6.2 miESE (120°)10.4 mph
12:30 AM78.8 °F73.4 °F83 %29.77 in6.2 miESE (120°)9.2 mph
1:00 AM79.0 °F73.0 °F76 %29.76 inSE (130°)10.4 mph
1:00 AM78.8 °F73.4 °F83 %29.74 in6.2 miSE (130°)10.4 mphMostly Cloudy
1:30 AM78.8 °F71.6 °F78 %29.74 in6.2 miESE (120°)11.5 mphScattered Clouds
2:00 AM77.0 °F71.6 °F83 %29.74 in6.2 miESE (120°)9.2 mph
2:30 AM77.0 °F71.6 °F83 %29.71 in6.2 miSE (130°)8.1 mph
3:00 AM77.0 °F72.0 °F81 %29.73 inSE (130°)9.2 mph
3:00 AM77.0 °F71.6 °F83 %29.71 in6.2 miSE (130°)9.2 mphScattered Clouds
3:30 AM77.0 °F71.6 °F83 %29.71 in6.2 miSE (130°)10.4 mphMostly Cloudy
4:00 AM77.0 °F73.4 °F89 %29.71 in6.2 miSE (140°)8.1 mphOvercast
4:00 AM76.0 °F73.0 °F86 %29.72 inSE (140°)8.1 mph
4:30 AM77.0 °F73.4 °F89 %29.71 in6.2 miSSE (150°)6.9 mphMostly Cloudy
5:00 AM75.2 °F73.4 °F94 %29.71 in6.2 miSSE (150°)6.9 mphScattered Clouds
5:30 AM75.2 °F73.4 °F94 %29.74 in6.2 miSE (140°)4.6 mphScattered Clouds
6:00 AM77.0 °F72.0 °F82 %29.75 in25.0 miSE (140°)8.1 mphPartly Cloudy
6:00 AM77.0 °F73.4 °F89 %29.74 in6.2 miSE (130°)8.1 mphScattered Clouds
6:30 AM77.0 °F71.6 °F83 %29.77 in6.2 miESE (120°)10.4 mphMostly Cloudy
7:00 AM82.0 °F71.0 °F62 %29.77 inESE (110°)11.5 mph
7:00 AM82.4 °F71.6 °F70 %29.77 in6.2 miESE (110°)11.5 mphScattered Clouds
7:30 AM82.4 °F69.8 °F66 %29.77 in6.2 miESE (110°)12.7 mphScattered Clouds
8:00 AM84.2 °F68.0 °F58 %29.77 in6.2 miESE (110°)15.0 mphScattered Clouds
8:30 AM84.2 °F69.8 °F62 %29.77 in6.2 miESE (110°)13.8 mphScattered Clouds
9:00 AM86.0 °F70.0 °F50 %29.78 in25.0 miEast (90°)13.8 mphRainLight Drizzle
9:00 AM86.0 °F69.8 °F58 %29.77 in6.2 miEast (90°)13.8 mphLight Drizzle
9:30 AM87.8 °F69.8 °F55 %29.77 in6.2 miESE (110°)16.1 mphMostly Cloudy
10:00 AM87.8 °F69.8 °F55 %29.77 in6.2 miESE (110°)17.3 mphMostly Cloudy
10:00 AM88.0 °F70.0 °F45 %29.77 inESE (110°)17.3 mph
10:30 AM86.0 °F69.8 °F58 %29.77 in6.2 miESE (110°)13.8 mphMostly Cloudy
11:00 AM87.8 °F69.8 °F55 %29.77 in6.2 miEast (80°)16.1 mphMostly Cloudy
11:30 AM86.0 °F71.6 °F62 %29.74 in5.6 miEast (80°)17.3 mphScattered Clouds
11:44 AM82.4 °F73.4 °F74 %29.74 in4.3 miESE (120°)19.6 mph31.1 mphRainRain Showers
11:56 AM86.0 °F75.2 °F70 %29.74 in6.2 miEast (90°)10.4 mph21.9 mphMostly Cloudy
12:00 PM87.0 °F71.0 °F49 %29.74 in19.0 miEast (90°)12.7 mphPartly Cloudy
12:00 PM86.0 °F71.6 °F62 %29.74 in6.2 miEast (90°)12.7 mph25.3 mphMostly Cloudy
12:30 PM89.6 °F68.0 °F49 %29.71 in6.2 miEast (100°)18.4 mphMostly Cloudy
1:00 PM88.0 °F69.0 °F45 %29.72 inEast (90°)16.1 mph
1:00 PM87.8 °F69.8 °F55 %29.71 in6.2 miEast (90°)16.1 mphMostly Cloudy
1:30 PM87.8 °F69.8 °F55 %29.71 in6.2 miESE (110°)17.3 mph28.8 mphMostly Cloudy
2:00 PM89.6 °F69.8 °F52 %29.71 in6.2 miESE (110°)18.4 mph29.9 mphMostly Cloudy
2:30 PM87.8 °F69.8 °F55 %29.68 in6.2 miEast (100°)18.4 mphMostly Cloudy
2:38 PM89.6 °F69.8 °F52 %29.68 in6.2 miEast (90°)17.3 mph28.8 mphScattered Clouds
3:00 PM90.0 °F70.0 °F42 %29.69 in19.0 miEast (100°)17.3 mphPartly Cloudy
3:00 PM89.6 °F69.8 °F52 %29.68 in6.2 miEast (100°)17.3 mphScattered Clouds
3:30 PM86.0 °F69.8 °F58 %29.68 in6.2 miEast (100°)17.3 mphMostly Cloudy
4:00 PM87.0 °F71.0 °F49 %29.69 inEast (90°)11.5 mph
4:00 PM86.0 °F69.8 °F58 %29.68 in6.2 miEast (90°)11.5 mphScattered Clouds
4:30 PM84.2 °F71.6 °F66 %29.68 in6.2 miEast (90°)12.7 mph24.2 mphMostly Cloudy
5:00 PM84.2 °F71.6 °F66 %29.68 in6.2 miEast (90°)10.4 mphMostly Cloudy
5:23 PM80.6 °F73.4 °F79 %29.68 in4.3 miEast (100°)15.0 mphRainRain Showers
5:27 PM80.6 °F73.4 °F79 %29.68 in3.1 miEast (100°)15.0 mphRainRain Showers
5:30 PM78.8 °F73.4 °F83 %29.68 in3.1 miEast (100°)15.0 mphRainRain Showers
5:35 PM78.8 °F75.2 °F89 %29.68 in3.7 miEast (90°)13.8 mphRainRain Showers
5:42 PM78.8 °F75.2 °F89 %29.71 in5.0 miEast (90°)12.7 mphRainLight Rain Showers
6:00 PM78.0 °F75.0 °F87 %29.71 in4.0 miESE (110°)11.5 mphOvercast
6:00 PM78.8 °F75.2 °F89 %29.71 in3.7 miESE (110°)11.5 mphRainLight Rain Showers
6:30 PM77.0 °F75.2 °F94 %29.71 in3.1 miESE (120°)10.4 mphRainLight Rain Showers
6:42 PM77.0 °F75.2 °F94 %29.71 in6.2 miESE (120°)12.7 mphRainLight Rain Showers
7:00 PM77.0 °F75.0 °F93 %29.74 inESE (120°)11.5 mph
7:00 PM77.0 °F75.2 °F94 %29.74 in6.2 miESE (120°)11.5 mphRainLight Rain Showers
7:21 PM77.0 °F75.2 °F94 %29.74 in0.0 miESE (120°)9.2 mphMostly Cloudy
7:30 PM77.0 °F73.4 °F89 %29.74 in0.0 miESE (110°)8.1 mphMostly Cloudy
7:40 PM77.0 °F73.4 °F89 %29.74 in6.2 miEast (90°)11.5 mphRainLight Rain Showers
7:55 PM75.2 °F73.4 °F94 %29.74 in3.7 miEast (100°)12.7 mphRainRain Showers
8:00 PM75.2 °F73.4 °F94 %29.74 inESE (110°)12.7 mphRainRain Showers
8:13 PM75.2 °F73.4 °F94 %29.74 inESE (110°)13.8 mphRainRain Showers
8:30 PM75.2 °F71.6 °F89 %29.77 inEast (100°)10.4 mphRainRain Showers
8:54 PM73.4 °F73.4 °F100 %29.77 inEast (100°)10.4 mphRainHeavy Rain Showers
9:00 PM73.4 °F71.6 °F94 %29.77 inEast (100°)9.2 mphRainHeavy Rain
9:00 PM74.0 °F72.0 °F93 %29.77 in2.0 miEast (100°)9.2 mphOvercast
9:16 PM73.4 °F73.4 °F100 %29.77 inESE (120°)12.7 mphRainHeavy Rain
9:30 PM73.4 °F73.4 °F100 %29.77 in1.8 miESE (110°)12.7 mphRainHeavy Rain
9:41 PM73.4 °F73.4 °F100 %29.77 in3.1 miEast (80°)5.8 mphRainRain
9:59 PM73.4 °F73.4 °F100 %29.77 in1.2 miSE (130°)10.4 mphRainHeavy Rain
10:00 PM74.0 °F73.0 °F96 %29.77 inSE (130°)10.4 mph
10:00 PM73.4 °F73.4 °F100 %29.77 in1.1 miSE (130°)10.4 mphRainHeavy Rain
10:18 PM73.4 °F73.4 °F100 %29.77 in4.3 miSE (140°)5.8 mphMostly Cloudy
10:25 PM73.4 °F73.4 °F100 %29.74 in5.0 miSSE (150°)5.8 mphRainRain
10:30 PM73.4 °F73.4 °F100 %29.74 in5.0 miSSE (150°)5.8 mphRainRain
10:42 PM73.4 °F73.4 °F100 %29.74 in3.7 miSSE (160°)5.8 mphRainRain
10:58 PM75.2 °F73.4 °F94 %29.74 in6.2 miSSE (150°)4.6 mphRainLight Rain
11:00 PM75.2 °F73.4 °F94 %29.74 in6.2 miSE (140°)4.6 mphRainLight Rain
11:30 PM75.2 °F73.4 °F94 %29.74 in6.2 miSE (140°)5.8 mphRainLight Rain
Hourly data recorded from YBRK, located miles away from Pink Lily, Queensland







STORIES FROM OUR PARTNERS